TITAN 3C TRANSTAGE DEB, 26525

Orbit data source: Space-Track

TITAN 3C TRANSTAGE DEB, 26525 is space debris in HEO originally from a launch on Tue, 21 Dec 1965 UTC launched from the Air Force Eastern Test Range (AFETR). Debris objects in space refer to the collection of defunct objects orbiting the Earth. Examples of debris include non-operational satellites, rocket bodies, and fragments generated from explosions, collisions, or faulty payload assembly.

Loading next visibility...
Identifier
26525, 1965-108AL
Orbit
HEO
Country
Flag of USUS
Related business
Manufacturer
Unknown
Mission
Spacecraft
Bus & Motor
Unknown
Mass
Unknown
Launch date (UTC)
1965-12-21 (60 years ago)
Launch vehicle
Unknown
Launch site
Air Force Eastern Test Range (AFETR)
Object type
Payload
Rocket body
Debris
Shape & HBR
Unknown shape, 0.3 m
Radar Cross Section
Medium (>0.1 m² and <1 m²)

Expand to show TLE details & history
Last TLE update: 3 days ago

TLE from 3 days ago
0 TITAN 3C TRANSTAGE DEB
1 26525U 65108AL  25286.70370145 -.00000044  00000-0 -41424-3 0  9998
2 26525  26.3555 272.4867 6714259 201.3144 356.1688  2.83263420263731
Epoch: 2025-10-13T16:53Z
TLE epoch observation values (Epoch: 2025-10-13T16:53:19.805Z)
Latitude
1.92633°
Longitude
172.75136°
Altitude
855.273 km
Speed
9.556 km/s
True Right ascension
05h 54m 20s
True Declination
1° 54' 54"
Sunlit
Object was in daylight at epoch
Visualization orbit readout
Latitude
Unknown
Longitude
Unknown
Altitude
Unknown
Speed
Unknown
Apparent Right ascension
Unknown
Apparent Declination
Unknown
Sunlit
N/A
Visualization observer readout
Local Sidereal Time
16:04:36
Azimuth
Unknown
Elevation
Unknown
Doppler factor
Unknown
Orbital elements
Apogee altitude
28,894.392 km
Perigee altitude
555.846 km
Semi-major axis
21,103.256 km
Eccentricity
0.67143
Inclination
26.3555°
RAAN
272.4867°
Arg. of periapsis
201.3144°
True anomaly
334.40392°
Mean anomaly
356.1688°
Eccentric anomaly
348.49749°
Mean motion
0.70798 °/min
Orbital period
508.49 mins
BSTAR
-0.00041424
Loading maneuver chart data...
Computing Atmospheric mass density...

Documentation

Showing up to 5 results
|